This is the latest recevied weather packets stored in our database for station/object W5HKR. If no packets are shown the sender has not sent any weather packets the latest 10 day(s).
| Time | Temp. | Humidity | Pressure | Rain* | Wind** | Luminosity | Snow |
|---|---|---|---|---|---|---|---|
| 1777868909 | 19.44° C | 68% | 989.6 hPa | 0 mm | - | - | - |
| 1777868609 | 18.33° C | 91% | 990.6 hPa | 0 mm | - | - | - |
| 1777868520 | 19.44° C | 68% | 989.5 hPa | 0 mm | - | - | - |
| 1777868310 | 19.44° C | 68% | 988.9 hPa | 0 mm | - | - | - |
| 1777868010 | 19.44° C | 67% | 989.4 hPa | 0 mm | - | - | - |
| 1777867709 | 19.44° C | 67% | 989.2 hPa | 0 mm | - | - | - |
| 1777867440 | 18.33° C | 91% | 990.6 hPa | 0 mm | - | - | - |
| 1777867109 | 19.44° C | 67% | 989.3 hPa | 0 mm | - | - | - |
| 1777866509 | 19.44° C | 66% | 989.5 hPa | 0 mm | - | - | - |
| 1777865910 | 19.44° C | 65% | 989.5 hPa | 0 mm | - | - | - |
| 1777865282 | 18.33° C | 91% | 990.6 hPa | 0 mm | - | - | - |
| 1777865009 | 19.44° C | 64% | 989.2 hPa | 0 mm | - | - | - |
| 1777847612 | 18.33° C | 91% | 990.6 hPa | 0 mm | - | - | - |
| 1777845210 | 27.22° C | 36% | 989.5 hPa | 0 mm | - | - | - |
| 1777844011 | 18.33° C | 91% | 990.6 hPa | 0 mm | - | - | - |
| 1777843680 | 27.22° C | 38% | 990.1 hPa | 0 mm | - | - | - |
| 1777843109 | 27.22° C | 38% | 990.2 hPa | 0 mm | - | - | - |
| 1777842510 | 26.67° C | 38% | 990.5 hPa | 0 mm | - | - | - |
| 1777842210 | 18.33° C | 91% | 990.6 hPa | 0 mm | - | - | - |
| 1777840710 | 26.67° C | 36% | 991.2 hPa | 0 mm | - | - | - |
| 1777840109 | 26.67° C | 34% | 991.3 hPa | 0 mm | - | - | - |
| 1777839810 | 27.22° C | 39% | 991.5 hPa | 0 mm | - | - | - |
| 1777839360 | 18.33° C | 91% | 990.6 hPa | 0 mm | - | - | - |
| 1777839211 | 18.33° C | 91% | 990.6 hPa | 0 mm | - | - | - |
| 1777838910 | 27.22° C | 35% | 991.8 hPa | 0 mm | - | - | - |
* Rain latest hour (hover to see other rain measurements)
** Current wind speed in m/s (hover to see current wind gust speed)